Location: Ore Lake
(42.4733°N, 83.8017°W)
Time: 04:15:42
(UTC-04:00)

Daily predictions for brighter satellites

Satellite Brightness Start Highest point End
(mag) Time Altitude Azimuth Time Altitude Azimuth Time Altitude Azimuth
ATLAS 3B R/B 4.4 02:58:26 27° NNW 02:58:26 27° NNW 03:02:59 10° NNE
Cosmos 1980 Rocket 4.3 03:19:14 22° NE 03:19:14 22° NE 03:21:14 10° NNE
Resurs 1-4 Rocket 4.5 03:14:53 10° NE 03:16:34 18° NE 03:16:34 18° NE
FALCON 9 R/B 4.4 03:31:24 59° SSE 03:31:24 59° SSE 04:00:31 10° ESE
Cosmos 2263 Rocket 4.2 03:27:21 10° N 03:31:06 24° NE 03:31:06 24° NE
Lacrosse 4 Rocket 4.4 04:09:14 10° NNE 04:11:25 14° NE 04:13:38 10° ENE
SL-16 R/B 3.7 04:16:19 32° NNW 04:16:19 32° NNW 04:19:28 10° NNW
Cosmos 2322 Rocket 2.8 04:28:06 52° NNE 04:28:06 52° NNE 04:32:19 10° NNE
Cosmos 1709 Rocket 4.4 04:22:52 10° N 04:27:32 53° NNW 04:27:32 53° NNW
CENTAUR R/B 2.9 04:30:07 56° NNW 04:30:07 56° NNW 04:36:13 10° NNE
SL-16 R/B 2.7 04:31:51 56° NNE 04:31:51 56° NNE 04:36:19 10° NNE
ADEOS Rocket 3.3 04:25:01 10° NNE 04:29:19 54° NNE 04:29:19 54° NNE
USA 215 3.6 04:25:35 10° ESE 04:32:02 61° NE 04:38:28 10° NW
ARIANE 5 R/B 3.8 04:41:18 10° N 04:44:10 31° NNW 04:44:10 31° NNW
COBE Rocket 4.4 04:46:56 10° N 04:50:56 54° N 04:50:56 54° N
CZ-2D R/B 3.2 04:49:38 10° N 04:53:19 35° NNW 04:53:19 35° NNW
Cosmos 1544 Rocket 4.2 04:52:39 10° N 04:57:02 53° E 04:57:05 53° E
Cosmos 2360 Rocket 2.4 04:57:54 56° SSE 04:58:45 63° ESE 05:04:20 10° NNE
Resurs 1-4 Rocket 3.3 04:54:28 10° N 04:57:40 30° NNW 04:57:40 30° NNW
Cosmos 1980 Rocket 3.8 05:01:00 21° NW 05:01:00 21° NW 05:04:26 10° N
CZ-4B R/B 4.2 04:59:21 10° NNE 05:02:24 33° E 05:02:24 33° E
Cosmos 1812 4.1 05:04:57 34° NNE 05:04:57 34° NNE 05:07:15 10° N
Okean O Rocket 2.4 05:04:26 10° NNE 05:08:44 49° E 05:09:49 40° SE
Cosmos 2263 Rocket 3.7 05:10:44 10° NW 05:12:41 22° NW 05:12:41 22° NW
Cosmos 2184 Rocket 3.9 05:10:07 10° N 05:16:21 88° W 05:22:37 10° S
Cosmos 1340 3.2 05:18:04 58° E 05:18:04 58° E 05:21:41 10° NNE
Meteor 1-12 Rocket 4.3 05:13:00 10° N 05:18:41 79° E 05:24:23 10° SSE
DELTA 2 R/B (1) 4.3 05:20:34 37° S 05:21:21 39° SSE 05:26:29 10° E
Cosmos 1777 Rocket 3.9 05:16:17 10° NNW 05:21:37 81° WSW 05:26:53 10° SSE
ATLAS 5 CENTAUR R/B 4.4 05:17:02 10° NNW 05:21:51 26° NE 05:27:01 10° E
Meteor 1-18 Rocket 4.0 05:22:11 47° SSW 05:23:51 83° W 05:29:28 10° N
MOS 1-B 4.3 05:18:37 10° N 05:24:24 67° WNW 05:25:50 49° SW
Cosmos 1743 4.3 05:23:06 10° N 05:26:41 35° ENE 05:30:14 10° SE
ADEOS II 2.4 05:21:52 10° NNE 05:27:07 64° ESE 05:30:52 19° S
Cosmos 1455 Rocket 2.9 05:26:38 10° N 05:31:02 79° W 05:32:07 50° S
Lacrosse 5 3.9 05:34:51 14° S 05:34:51 14° S 05:35:40 10° S
Cosmos 2322 3.6 05:29:55 44° SSW 05:31:51 82° WNW 05:37:38 10° NNE
MOS 1 Rocket 3.2 05:28:11 10° N 05:32:54 59° WNW 05:33:13 57° W
EO 1 Del DPAF 3.2 05:34:10 22° SSE 05:36:33 85° ENE 05:40:26 10° NNW
Cosmos 1975 Rocket 4.5 05:38:18 24° NW 05:38:18 24° NW 05:40:42 10° NNW
Okean 1 3.3 05:40:05 61° W 05:40:09 61° W 05:44:12 10° N
Cosmos 1238 Rocket 2.9 05:46:13 29° SSE 05:47:25 50° E 05:50:18 10° NNE
Cosmos 2154 Rocket 3.9 05:43:47 10° N 05:50:01 90° WSW 05:56:13 10° S
Cosmos 1975 2.9 05:46:22 10° NNW 05:50:18 50° W 05:50:38 48° WSW
Lacrosse 4 Rocket 1.2 05:46:26 10° NNW 05:50:36 74° WSW 05:54:52 10° SSE
Cosmos 2333 4.5 05:46:11 14° S 05:50:58 67° ESE 05:56:38 10° NNE
CZ-4B DEB 4.1 05:50:09 10° N 05:55:44 76° WNW 06:00:33 14° SSW
Cosmos 1536 Rocket 3.6 05:54:41 32° SW 05:56:33 58° W 06:01:00 10° N
Cosmos 2208 Rocket 4.0 05:53:05 17° SSW 05:57:19 89° WNW 06:02:49 10° NNE
Cosmos 1500 3.8 05:54:00 10° NNW 05:57:02 36° WNW 05:57:02 36° WNW
Tiangong 2 0.9 05:59:14 63° WSW 05:59:36 74° SSW 06:02:43 10° ESE
CZ-4B R/B 3.2 05:54:24 10° N 06:00:02 70° WNW 06:04:58 13° SSW
Meteor PRIRODA 3.9 05:57:30 10° NNE 06:01:16 69° E 06:05:01 10° S
IRAS Rocket 4.2 05:57:40 10° NNE 06:03:11 72° WNW 06:08:32 11° SSW
Okean 1-7 Rocket 4.1 06:03:55 10° S 06:08:23 63° E 06:12:50 10° NNE
Cosmos 2181 Rocket 4.1 06:04:27 10° S 06:10:38 79° E 06:16:57 10° N
Cosmos 2322 Rocket 3.8 06:09:55 15° WNW 06:11:30 17° NW 06:15:00 10° N
Gblst 52 Del rocket 4.3 06:06:19 11° WNW 06:11:46 76° SW 06:18:13 10° SE
PSLV R/B 3.8 06:07:35 10° N 06:11:47 49° WNW 06:14:44 18° SW
SL-8 Rocket 4.5 06:07:45 10° N 06:13:57 64° E 06:20:04 10° SSE
USA 215 3.6 06:09:00 10° SSE 06:15:10 42° SW 06:21:21 10° WNW
Nadezhda 1 Rocket 4.3 06:10:50 16° SW 06:15:18 42° WNW 06:21:02 10° N
Cosmos 2237 4.4 06:11:23 19° SW 06:15:26 56° WNW 06:21:06 10° NNE
SL-16 R/B 3.9 06:13:43 14° WNW 06:15:32 16° NW 06:19:00 10° N
COSMOS 2428 2.7 06:14:18 14° SW 06:19:13 66° WNW 06:24:54 10° NNE
ERS-2 2.0 06:16:45 10° N 06:20:28 79° WNW 06:24:08 10° SSW
CENTAUR R/B 4.4 06:17:17 11° WNW 06:21:39 20° NNW 06:26:41 10° NNE
CZ-2C R/B 4.2 06:17:55 10° SSW 06:22:12 37° W 06:26:26 10° NNW
Thor Agena Rocket 3.7 06:18:34 10° SSE 06:23:37 78° ENE 06:28:40 10° NNW
ISS -2.0 06:24:19 16° SSW 06:24:19 16° SSW 06:25:55 10° S
USA 229 DEB 4.0 06:17:20 10° SSW 06:24:07 71° ESE 06:31:02 10° NE
USA 229 4.0 06:17:27 10° SSW 06:24:13 71° ESE 06:31:08 10° NE
Cosmos 2219 Rocket 2.2 06:20:27 10° SSW 06:26:01 84° ESE 06:31:39 10° NNE
Meteor 2-9 Rocket 4.3 06:20:31 10° N 06:26:16 87° E 06:31:48 10° S
Cosmos 2341 Rocket 4.0 06:21:25 10° NNW 06:27:35 63° W 06:33:41 10° S
Cosmos 1606 Rocket 4.4 06:23:34 10° N 06:27:58 56° E 06:32:21 10° SSE
Okean 2 4.2 06:24:20 10° S 06:28:24 56° E 06:32:30 10° NNE
Cosmos 2150 Rocket 4.5 06:24:08 10° NNW 06:29:25 67° ENE 06:34:44 10° SSE
Meteor 1-19 Rocket 4.3 06:25:43 10° SSW 06:31:15 60° WNW 06:36:55 10° N
SL-8 R/B 4.4 06:27:43 10° WNW 06:32:23 51° NNE 06:37:03 10° E
Cosmos 1844 Rocket 2.7 06:29:00 10° NNW 06:34:26 55° WSW 06:39:50 10° S
CZ-4B R/B 4.1 06:32:18 10° N 06:36:47 67° WNW 06:41:14 10° SSW
Cosmos 2218 Rocket 4.2 06:30:36 10° N 06:37:03 81° E 06:43:22 10° S
CZ-4B R/B 4.4 06:35:24 10° NNW 06:37:35 15° WNW 06:38:35 14° W
Meteor 1-28 Rocket 4.4 06:35:18 10° SSE 06:38:57 48° ENE 06:42:39 10° N
Cosmos 1898 Rocket 3.4 06:36:06 10° NNW 06:41:19 75° WSW 06:46:28 10° SSE
Cosmos 2360 Rocket 3.5 06:39:41 13° W 06:43:13 22° NW 06:47:33 10° N
Okean O Rocket 3.2 06:41:49 10° NNW 06:44:44 17° WNW 06:47:18 11° WSW
Cosmos 2278 Rocket 2.4 06:39:08 10° NNW 06:44:50 78° ENE 06:50:30 10° SSE
Cosmos 468 Rocket 4.0 06:39:45 10° SSW 06:44:55 80° WNW 06:50:10 10° NNE
Meteor 2-4 Rocket 3.8 06:44:16 10° SSW 06:49:46 57° WNW 06:55:10 10° N
Cosmos 2237 Rocket 2.4 06:45:16 10° SSW 06:50:56 79° ESE 06:56:40 10° NNE
Cosmos 405 Rocket 2.8 06:48:37 10° SSW 06:52:40 73° W 06:56:43 10° N
Feng Yun 1-1 Rocket 4.5 06:48:02 10° N 06:53:47 58° WNW 06:59:24 10° SSW
Ariane Rocket 4.5 06:49:13 10° NNE 06:54:00 41° E 06:58:46 10° S
Okean-O 3.0 06:50:55 10° N 06:55:08 44° WNW 06:59:20 10° SW
CZ-4C R/B 4.5 06:49:03 10° NNW 06:55:17 34° NE 07:02:08 10° ESE
COSMO-SKYMED 1 2.5 06:52:11 10° S 06:56:31 80° WSW 07:00:54 10° NNW
Cosmos 1515 4.3 06:53:53 10° S 06:57:41 64° E 07:01:31 10° NNE
Cosmos 1666 3.7 06:56:44 10° NNW 07:00:01 26° W 07:03:16 10° SSW
Cosmos 2228 3.7 06:56:08 10° N 07:00:26 62° E 07:04:44 10° SSE
Cosmos 1743 4.3 06:59:53 10° NW 07:02:12 15° W 07:04:29 10° WSW
Meteor 1-31 Rocket 3.7 06:59:01 10° N 07:02:20 29° WNW 07:05:38 10° SW
Cosmos 2285 Rocket 4.1 06:56:23 10° SSW 07:02:45 63° WNW 07:09:09 10° NNE
Cosmos 1726 Rocket 3.6 06:59:21 10° NNW 07:03:48 71° W 07:08:13 10° S
ADEOS II 3.6 07:02:51 10° NNW 07:06:19 18° WNW 07:09:46 10° WSW
ATLAS 5 CENTAUR R/B 2.5 07:01:08 10° NW 07:07:10 78° WSW 07:13:41 10° SSE
Cosmos 2333 Rocket 2.3 07:01:48 10° SW 07:07:25 59° WNW 07:13:07 10° NNE
DELTA 2 R/B (1) 3.8 07:01:56 10° WSW 07:07:25 65° S 07:12:55 10° E
BREEZE M DEB (TANK) 2.9 06:58:50 10° WNW 07:07:35 72° SW 07:10:40 10° SE
